Location: Hopville
(44.8032°N, 123.1329°W)
Time: 17:30:51
(UTC+00:00)

ADEOS - Pass Details

Date: 24 January 2021
Orbit: 792 x 794 km, 98.9° (Epoch: 01 March)

Event Time Altitude Azimuth Distance (km) Brightness Sun altitude
Rises 12:47:03 0° 17° (NNE) 3,303 7.0 -30.5°
Reaches altitude 10° 12:49:25 10° 21° (NNE) 2,369 6.3 -30.1°
Maximum altitude 12:54:36 63° 102° (ESE) 884 3.9 -29.2°
Enters shadow 12:56:42 35° 170° (S) 1,257 4.6 -28.8°
